Location: Unspecified
(0.0000°N, 0.0000°E)
Time: 17:00:35
(UTC+00:00)

Vanguard 2 - Pass Details

Date: 18 December 2018
Orbit: 553 x 2939 km, 32.9° (Epoch: 21 March)

Event Time Altitude Azimuth Distance (km) Brightness Sun altitude
Rises 02:37:02 0° 306° (NW) 4,968 - -44.5°
Reaches altitude 10° 02:39:49 10° 306° (NW) 4,246 - -44.0°
Exits shadow 02:51:20 81° 310° (NW) 2,515 9.7 -41.5°
Maximum altitude 02:52:27 89° 37° (NE) 2,541 9.8 -41.3°
Drops below altitude 10° 03:10:25 10° 126° (SE) 5,771 12.7 -37.5°
Sets 03:14:55 0° 125° (SE) 6,767 13.3 -36.5°
